Fremont, MI

9:57 PM EST on January 22, 2017 (GMT -0500)
Fremont

Weather History for KFFX - May, 2013

Change the Weather History Date:

Monday, May 27, 2013

  Actual Average (KMKG) Record (KMKG)
Temperature  
Mean Temperature 54 °F -  
Max Temperature 61 °F 70 °F 86 °F (2012)
Min Temperature 47 °F 49 °F 27 °F (1961)
Degree Days  
Heating Degree Days 11    
Growing Degree Days 4 (Base 50)    
Moisture  
Dew Point 40 °F    
Average Humidity 61    
Maximum Humidity 98    
Minimum Humidity 39    
Precipitation  
Precipitation 0.00 in - - ()
Sea Level Pressure  
Sea Level Pressure 30.11 in    
Wind  
Wind Speed 7 mph (East)    
Max Wind Speed 16 mph    
Max Gust Speed 24 mph    
Visibility 10 miles    
Events      
Averages and records for this station are not official NWS values.
T = Trace of Precipitation, MM = Missing Value Source: NWS Daily Summary

Daily Weather History Graph

Daily Weather History Graph

Search for Another Location

Airport or City:

Trip Planner

Search our weather history database for the weather conditions in past years. The results will help you decide how hot, cold, wet, or windy it might be!

Date:

Astronomy

May. 27, 2013 Rise Set
Actual Time 6:08 AM EDT 9:13 PM EDT
Civil Twilight 5:34 AM EDT 9:48 PM EDT
Nautical Twilight 4:50 AM EDT 10:32 PM EDT
Astronomical Twilight 3:57 AM EDT 11:25 PM EDT
Moon 11:50 PM EDT (5/27) 8:46 AM EDT (5/27)
Length of Visible Light 16h 13m
Length of Day
15h 05m
Waning Gibbous, 91% of the Moon is Illuminated
May 27
Waning Gibbous
May 31
Last Quarter
Jun 8
New
Jun 16
First Quarter
Jun 23
Full

Hourly Weather History & Observations

Time (EDT) Temp. Dew Point Humidity Pressure Visibility Wind Dir Wind Speed Gust Speed Precip Events Conditions
12:15 AM 54.1 °F 42.3 °F 64% 30.22 in 10.0 mi NE 3.5 mph - N/A   Clear
12:34 AM 53.8 °F 41.0 °F 62% 30.22 in 10.0 mi ENE 4.6 mph - N/A   Clear
12:54 AM 52.9 °F 39.6 °F 61% 30.21 in 10.0 mi ENE 3.5 mph - N/A   Clear
1:15 AM 52.0 °F 38.7 °F 60% 30.21 in 10.0 mi ENE 3.5 mph - N/A   Clear
1:35 AM 52.0 °F 38.8 °F 61% 30.22 in 10.0 mi ENE 3.5 mph - N/A   Clear
1:55 AM 51.3 °F 37.2 °F 59% 30.22 in 10.0 mi ENE 3.5 mph - N/A   Clear
2:15 AM 50.7 °F 36.5 °F 58% 30.21 in 10.0 mi ENE 4.6 mph - N/A   Clear
2:35 AM 50.9 °F 36.9 °F 59% 30.20 in 10.0 mi ENE 4.6 mph - N/A   Clear
2:55 AM 50.5 °F 34.9 °F 55% 30.20 in 10.0 mi ENE 6.9 mph - N/A   Clear
3:14 AM 50.2 °F 34.7 °F 55% 30.19 in 10.0 mi ENE 4.6 mph - N/A   Clear
3:35 AM 49.6 °F 34.7 °F 56% 30.19 in 10.0 mi ENE 3.5 mph - N/A   Clear
3:54 AM 49.1 °F 35.2 °F 59% 30.18 in 10.0 mi East 3.5 mph - N/A   Clear
4:15 AM 48.6 °F 35.6 °F 61% 30.18 in 10.0 mi ENE 3.5 mph - N/A   Clear
4:35 AM 48.4 °F 35.8 °F 62% 30.18 in 10.0 mi East 3.5 mph - N/A   Clear
4:54 AM 47.8 °F 36.1 °F 64% 30.18 in 10.0 mi ENE 4.6 mph - N/A   Clear
5:15 AM 48.2 °F 36.3 °F 63% 30.18 in 10.0 mi Calm Calm - N/A   Clear
5:35 AM 47.5 °F 36.5 °F 66% 30.18 in 10.0 mi ENE 3.5 mph - N/A   Clear
5:55 AM 47.7 °F 36.7 °F 66% 30.18 in 10.0 mi ENE 4.6 mph - N/A   Clear
6:14 AM 47.7 °F 36.9 °F 66% 30.18 in 10.0 mi ENE 4.6 mph - N/A   Clear
6:35 AM 47.8 °F 36.9 °F 66% 30.19 in 10.0 mi Calm Calm - N/A   Clear
6:55 AM 48.2 °F 37.2 °F 66% 30.19 in 10.0 mi ENE 4.6 mph - N/A   Scattered Clouds
7:15 AM 49.3 °F 37.6 °F 64% 30.18 in 10.0 mi East 5.8 mph - N/A   Scattered Clouds
7:35 AM 50.5 °F 37.8 °F 62% 30.17 in 10.0 mi East 8.1 mph - N/A   Scattered Clouds
7:54 AM 52.2 °F 38.1 °F 59% 30.17 in 10.0 mi ENE 6.9 mph - N/A   Scattered Clouds
8:15 AM 52.7 °F 38.3 °F 58% 30.18 in 10.0 mi East 8.1 mph - N/A   Overcast
8:34 AM 53.2 °F 38.1 °F 57% 30.18 in 10.0 mi East 8.1 mph - N/A   Overcast
8:55 AM 54.3 °F 38.7 °F 55% 30.18 in 10.0 mi East 6.9 mph - N/A   Overcast
9:15 AM 55.6 °F 37.9 °F 52% 30.17 in 10.0 mi East 6.9 mph - N/A   Overcast
9:35 AM 56.8 °F 38.3 °F 50% 30.18 in 10.0 mi East 8.1 mph - N/A   Overcast
9:55 AM 57.6 °F 37.6 °F 47% 30.17 in 10.0 mi East 9.2 mph - N/A   Overcast
10:15 AM 57.9 °F 37.6 °F 47% 30.16 in 10.0 mi East 9.2 mph - N/A   Overcast
10:35 AM 59.5 °F 38.1 °F 45% 30.15 in 10.0 mi East 10.4 mph - N/A   Overcast
10:54 AM 61.3 °F 37.2 °F 41% 30.14 in 10.0 mi ESE 10.4 mph 17.3 mph N/A   Overcast
11:15 AM 60.1 °F 37.6 °F 43% 30.13 in 10.0 mi East 11.5 mph 16.1 mph N/A   Overcast
11:35 AM 60.3 °F 36.0 °F 40% 30.13 in 10.0 mi ESE 11.5 mph 18.4 mph N/A   Overcast
11:54 AM 60.8 °F 36.5 °F 40% 30.12 in 10.0 mi East 10.4 mph 18.4 mph N/A   Overcast
12:15 PM 61.9 °F 37.4 °F 40% 30.11 in 10.0 mi ESE 12.7 mph 18.4 mph N/A   Overcast
12:35 PM 60.3 °F 36.7 °F 41% 30.12 in 10.0 mi East 13.8 mph 19.6 mph N/A   Overcast
12:54 PM 60.1 °F 37.4 °F 43% 30.11 in 10.0 mi East 10.4 mph - N/A   Overcast
1:15 PM 60.8 °F 36.9 °F 41% 30.11 in 10.0 mi East 9.2 mph 17.3 mph N/A   Overcast
1:34 PM 61.0 °F 36.0 °F 39% 30.11 in 10.0 mi East 13.8 mph 20.7 mph N/A   Overcast
1:55 PM 61.2 °F 36.5 °F 40% 30.11 in 10.0 mi East 11.5 mph 18.4 mph N/A   Overcast
2:15 PM 61.0 °F 36.0 °F 39% 30.11 in 10.0 mi East 12.7 mph 19.6 mph N/A   Overcast
2:34 PM 60.4 °F 37.0 °F 42% 30.10 in 10.0 mi ESE 11.5 mph 21.9 mph N/A   Overcast
2:55 PM 60.4 °F 37.8 °F 43% 30.10 in 10.0 mi East 12.7 mph 19.6 mph N/A   Overcast
3:14 PM 60.3 °F 38.1 °F 44% 30.09 in 10.0 mi ESE 13.8 mph 20.7 mph N/A   Overcast
3:35 PM 60.8 °F 38.5 °F 44% 30.09 in 10.0 mi East 15.0 mph 24.2 mph N/A   Overcast
3:55 PM 61.7 °F 39.0 °F 43% 30.07 in 10.0 mi East 13.8 mph 20.7 mph N/A   Overcast
4:14 PM 60.4 °F 40.1 °F 47% 30.07 in 10.0 mi East 10.4 mph 18.4 mph N/A   Overcast
4:35 PM 59.0 °F 41.9 °F 53% 30.05 in 10.0 mi ESE 10.4 mph - N/A   Overcast
4:55 PM 57.6 °F 42.8 °F 58% 30.05 in 10.0 mi ESE 9.2 mph 17.3 mph N/A   Overcast
5:15 PM 57.4 °F 41.9 °F 56% 30.05 in 10.0 mi East 12.7 mph 20.7 mph N/A   Overcast
5:34 PM 56.5 °F 42.4 °F 59% 30.04 in 10.0 mi East 11.5 mph 20.7 mph N/A   Overcast
5:55 PM 56.3 °F 43.5 °F 62% 30.04 in 10.0 mi SE 6.9 mph 18.4 mph N/A   Overcast
6:14 PM 55.2 °F 44.6 °F 67% 30.03 in 10.0 mi East 13.8 mph - N/A   Overcast
6:35 PM 54.5 °F 46.6 °F 75% 30.02 in 10.0 mi East 12.7 mph 17.3 mph N/A   Overcast
6:55 PM 54.9 °F 46.8 °F 74% 30.00 in 10.0 mi East 11.5 mph 19.6 mph N/A   Overcast
7:15 PM 54.5 °F 46.6 °F 75% 30.00 in 10.0 mi East 9.2 mph 18.4 mph N/A   Overcast
7:35 PM 54.7 °F 46.2 °F 73% 30.00 in 10.0 mi East 12.7 mph 17.3 mph N/A   Overcast
7:54 PM 54.9 °F 46.2 °F 73% 29.99 in 10.0 mi East 16.1 mph 21.9 mph N/A   Overcast
8:15 PM 54.5 °F 48.2 °F 79% 30.00 in 10.0 mi East 12.7 mph 23.0 mph N/A   Overcast
8:35 PM 54.0 °F 48.4 °F 81% 29.99 in 10.0 mi East 10.4 mph - N/A   Overcast
8:54 PM 53.8 °F 48.4 °F 82% 30.00 in 10.0 mi East 9.2 mph - N/A   Overcast
9:15 PM 53.6 °F 48.2 °F 82% 29.99 in 10.0 mi East 9.2 mph 18.4 mph N/A   Overcast
9:35 PM 52.9 °F 49.1 °F 87% 29.98 in 7.0 mi East 8.1 mph 16.1 mph N/A   Overcast
9:55 PM 52.7 °F 48.7 °F 86% 29.98 in 10.0 mi East 9.2 mph - N/A   Overcast
10:15 PM 52.7 °F 48.6 °F 86% 29.98 in 10.0 mi East 8.1 mph - N/A   Overcast
10:35 PM 52.3 °F 48.9 °F 88% 29.99 in 10.0 mi East 8.1 mph - N/A   Overcast
10:55 PM 51.8 °F 50.0 °F 94% 29.98 in 4.0 mi ENE 5.8 mph - N/A   Overcast
11:15 PM 51.1 °F 50.4 °F 97% 29.97 in 2.5 mi ENE 6.9 mph - N/A   Overcast
11:35 PM 51.1 °F 50.4 °F 97% 29.96 in 4.0 mi ENE 9.2 mph - N/A   Overcast
11:55 PM 50.9 °F 50.4 °F 98% 29.95 in 5.0 mi ENE 9.2 mph - N/A   Overcast